Stations météo

réclame
Mon MeteoGroup
Thomastown, Grande-Bretagne (3901): Température de l'air & dewpoint: 20.08.2019 01:00:00 - 26.08.2019 01:00:00 (BST)Thomastown, Grande-Bretagne (3901): Température de l'air -20cm & Température de l'air -100cm: 20.08.2019 01:00:00 - 26.08.2019 01:00:00 (BST)Thomastown, Grande-Bretagne (3901): Vitesse du vent & gusts: 20.08.2019 01:00:00 - 26.08.2019 01:00:00 (BST)Thomastown, Grande-Bretagne (3901): Direction du vent: 20.08.2019 01:00:00 - 26.08.2019 01:00:00 (BST)Thomastown, Grande-Bretagne (3901): reduced air pressure: 20.08.2019 01:00:00 - 26.08.2019 01:00:00 (BST)Thomastown, Grande-Bretagne (3901): visibility: 20.08.2019 01:00:00 - 26.08.2019 01:00:00 (BST)Thomastown, Grande-Bretagne (3901): Ensoleillement: 20.08.2019 01:00:00 - 26.08.2019 01:00:00 (BST)Thomastown, Grande-Bretagne (3901): Quantités de précipitations: 20.08.2019 01:00:00 - 26.08.2019 01:00:00 (BST)
Date & Time tt [°C] td [°C] tt -20cm [°C] tt -100cm [°C] ff [km/h] ff [knt] fx [km/h] fx [knt] dd ppp [hPa] vv [km] sd [min] rr [mm]
26.08.2019 01:00:00 11,9 11,8 - - 2 1 - - E 1018,5 18 - 0,0
26.08.2019 00:00:00 11,4 11,2 - - 2 1 - - SSE 1018,8 12 0 0,0
25.08.2019 23:00:00 12,1 11,6 - - 2 1 - - NNE 1018,7 28 0 0,0
25.08.2019 22:00:00 13,5 12,5 - - 5 3 - - NNW 1018,9 40 0 0,0
25.08.2019 21:00:00 14,4 13,2 - - 4 2 - - N 1018,6 40 12 0,0
25.08.2019 20:00:00 15,9 14,1 - - 4 2 - - NNW 1018,2 35 0 0,0
25.08.2019 19:00:00 15,9 14,4 - - 8 4 - - NW 1018,2 30 0 0,0
25.08.2019 18:00:00 16,0 14,6 - - 15 8 - - WNW 1018,0 9 0 0,0
25.08.2019 17:00:00 17,9 15,1 - - 13 7 - - NW 1017,4 35 0 0,0
25.08.2019 16:00:00 18,6 15,4 - - 9 5 - - NNW 1017,2 30 0 0,0
25.08.2019 15:00:00 19,7 14,7 - - 8 4 - - W 1017,0 27 0 0,0
25.08.2019 14:00:00 19,2 15,4 - - 9 5 - - WNW 1017,1 26 6 0,0
25.08.2019 13:00:00 19,6 14,9 - - 9 5 - - NW 1016,8 26 42 0,0
25.08.2019 12:00:00 18,4 15,1 - - 11 6 - - NNW 1016,9 28 30 0,0
25.08.2019 11:00:00 18,2 14,5 - - 8 4 - - NNW 1016,9 35 60 0,0
25.08.2019 10:00:00 16,7 14,3 16,7 15,7 9 5 - - NW 1016,9 29 60 0,0
25.08.2019 09:00:00 15,2 14,0 - - 5 3 - - N 1016,4 18 36 0,0
25.08.2019 08:00:00 13,6 13,2 - - 9 5 - - N 1016,1 12 30 0,0
25.08.2019 07:00:00 13,1 12,8 - - 9 5 - - NW 1015,7 12 0 0,0
25.08.2019 06:00:00 13,3 12,7 - - 8 4 - - NW 1015,2 13 0 0,0
25.08.2019 05:00:00 13,5 12,7 - - 8 4 - - NNW 1015,2 14 0 0,0
25.08.2019 04:00:00 13,1 12,6 - - 5 3 - - NW 1015,1 10 0 0,0
25.08.2019 03:00:00 13,8 12,8 - - 5 3 - - NW 1014,9 20 0 0,0
25.08.2019 02:00:00 14,0 12,7 - - 5 3 - - N 1014,8 18 0 0,0
25.08.2019 01:00:00 14,7 12,9 - - 4 2 - - NE 1014,7 28 - 0,0
25.08.2019 00:00:00 15,2 13,2 - - 4 2 - - ENE 1014,7 35 0 0,0
24.08.2019 23:00:00 16,0 14,8 - - 4 2 - - WNW 1014,7 27 0 0,0
24.08.2019 22:00:00 16,6 15,2 - - 2 1 - - NW 1014,4 22 0 0,0
24.08.2019 21:00:00 17,5 15,6 - - 4 2 - - S 1014,1 25 0 0,0
24.08.2019 20:00:00 19,1 15,7 - - 5 3 - - SE 1013,5 35 0 0,0
24.08.2019 19:00:00 20,2 15,5 - - 11 6 - - SE 1013,4 35 0 0,0
24.08.2019 18:00:00 21,0 16,7 - - 15 8 - - SE 1013,3 30 0 0,0
24.08.2019 17:00:00 21,7 17,5 - - 8 4 - - SE 1013,3 30 0 0,0
24.08.2019 16:00:00 20,4 17,0 - - 5 3 - - NW 1013,9 35 0 0,0
24.08.2019 15:00:00 20,9 16,6 - - 5 3 - - WNW 1013,9 35 0 0,2
24.08.2019 14:00:00 20,3 16,6 - - 9 5 - - SE 1013,9 35 0 0,0
24.08.2019 13:00:00 18,8 15,8 - - 5 3 - - SE 1014,0 15 0 0,0
24.08.2019 12:00:00 17,7 15,2 - - 15 8 - - SE 1014,6 20 0 0,0
24.08.2019 11:00:00 16,3 14,3 - - 16 9 - - SE 1015,0 25 0 0,0
24.08.2019 10:00:00 15,3 13,7 16,5 15,7 16 9 - - SE 1014,7 17 0 0,0
24.08.2019 09:00:00 14,6 13,5 - - 15 8 - - SE 1014,8 15 0 0,0
24.08.2019 08:00:00 13,6 12,9 - - 13 7 - - SE 1014,9 12 0 0,0
24.08.2019 07:00:00 13,3 12,7 - - 11 6 - - SE 1015,1 10 0 0,0
24.08.2019 06:00:00 13,4 12,7 - - 9 5 - - E 1015,4 11 0 0,0
24.08.2019 05:00:00 13,4 12,8 - - 16 9 - - ESE 1015,2 12 0 0,0
24.08.2019 04:00:00 13,5 12,9 - - 16 9 - - ESE 1015,7 14 0 0,0
24.08.2019 03:00:00 13,7 12,9 - - 9 5 - - ESE 1015,8 17 0 0,2
24.08.2019 02:00:00 14,2 12,8 - - 15 8 - - SE 1015,8 26 0 0,0
24.08.2019 01:00:00 14,6 12,9 - - 16 9 - - SSE 1015,9 29 - 0,0
24.08.2019 00:00:00 15,1 12,9 - - 21 11 - - SSE 1015,8 26 0 0,0
23.08.2019 23:00:00 15,7 13,2 - - 18 10 - - SSE 1015,9 40 0 0,0
23.08.2019 22:00:00 16,5 12,6 - - 22 12 - - S 1015,9 50 0 0,0
23.08.2019 21:00:00 17,3 12,4 - - 22 12 - - S 1015,6 50 0 0,0
23.08.2019 20:00:00 18,2 14,3 - - 24 13 - - S 1015,5 50 0 0,0
23.08.2019 19:00:00 18,5 14,2 - - 18 10 - - S 1015,8 45 0 0,0
23.08.2019 18:00:00 19,4 14,7 - - 16 9 - - S 1016,4 45 0 0,0
23.08.2019 17:00:00 19,4 14,8 - - 11 6 - - S 1017,1 50 0 0,0
23.08.2019 16:00:00 19,4 14,4 - - 15 8 - - S 1017,5 45 0 0,0
23.08.2019 15:00:00 20,0 14,8 - - 18 10 - - S 1017,8 45 18 0,0
23.08.2019 14:00:00 19,6 14,1 - - 28 15 - - S 1017,9 40 42 0,0
23.08.2019 13:00:00 18,9 14,3 - - 21 11 - - S 1018,5 45 6 0,0
23.08.2019 12:00:00 18,1 13,7 - - 24 13 - - S 1018,5 40 36 0,0
23.08.2019 11:00:00 17,5 14,1 - - 22 12 - - SSW 1018,6 35 6 0,0
23.08.2019 10:00:00 16,2 13,5 16,2 15,7 21 11 - - SSW 1018,7 35 6 0,0
23.08.2019 09:00:00 15,5 13,1 - - 26 14 - - S 1018,6 40 12 0,0
23.08.2019 08:00:00 15,0 13,2 - - 22 12 - - S 1018,4 30 6 0,0
23.08.2019 07:00:00 14,8 12,8 - - 21 11 - - SSW 1018,4 30 0 0,0
23.08.2019 06:00:00 14,8 11,9 - - 22 12 50 27 SSW 1018,1 29 0 0,0
23.08.2019 05:00:00 15,3 11,9 - - 21 11 - - SW 1018,1 30 0 0,0
23.08.2019 04:00:00 15,0 13,0 - - 9 5 - - ESE 1018,4 21 0 0,0
23.08.2019 03:00:00 14,8 14,0 - - 15 8 - - SE 1018,3 14 0 0,0
23.08.2019 02:00:00 14,8 13,3 - - 8 4 - - SSW 1018,4 19 0 0,0
23.08.2019 01:00:00 15,0 13,4 - - 13 7 - - SW 1018,1 18 - 0,0
23.08.2019 00:00:00 14,7 13,5 - - 8 4 - - WSW 1018,2 15 0 0,0
22.08.2019 23:00:00 15,4 14,1 - - 11 6 - - SSW 1018,3 14 0 0,0
22.08.2019 22:00:00 16,2 14,6 - - 11 6 - - S 1018,3 14 0 0,0
22.08.2019 21:00:00 16,7 14,1 - - 11 6 - - SSW 1017,9 25 0 0,0
22.08.2019 20:00:00 17,3 14,6 - - 16 9 - - SW 1017,0 20 - 0,0
22.08.2019 19:00:00 - - - - - - - - - - - - 0,0
22.08.2019 18:00:00 - - - - - - - - - - - - 0,0
22.08.2019 17:00:00 - - - - - - - - - - - - 0,0
22.08.2019 16:00:00 17,9 16,2 - - 22 12 - - WSW 1015,3 40 0 0,2
22.08.2019 15:00:00 17,6 16,6 - - 16 9 - - SW 1014,8 4,6 0 0,0
22.08.2019 14:00:00 16,7 16,1 - - 16 9 - - SSW 1014,5 45 0 0,2
22.08.2019 13:00:00 15,8 15,3 - - 16 9 - - S 1014,5 7 0 0,0
22.08.2019 12:00:00 15,5 14,6 - - 16 9 - - S 1014,6 21 0 0,0
22.08.2019 11:00:00 15,2 14,4 - - 15 8 - - S 1014,5 45 0 0,0
22.08.2019 10:00:00 14,5 14,1 - - 15 8 - - S 1014,6 35 0 0,2
22.08.2019 09:00:00 13,6 13,3 - - 15 8 - - S 1014,5 19 0 0,2
22.08.2019 08:00:00 13,0 12,6 - - 9 5 - - S 1014,7 8 0 0,8
22.08.2019 07:00:00 13,5 12,5 - - 9 5 - - S 1014,6 13 0 0,2
22.08.2019 06:00:00 13,5 11,4 - - 8 4 - - S 1014,6 28 0 0,0
22.08.2019 05:00:00 13,5 11,6 - - 5 3 - - SW 1014,9 35 0 0,0
22.08.2019 04:00:00 13,4 12,1 - - 4 2 - - SW 1015,1 35 0 0,0
22.08.2019 03:00:00 13,6 12,4 - - 8 4 - - S 1015,1 40 0 0,0
22.08.2019 02:00:00 13,5 12,3 - - 11 6 - - S 1015,2 30 0 0,0
22.08.2019 01:00:00 13,6 12,4 - - 9 5 - - S 1015,3 30 - 0,0
22.08.2019 00:00:00 13,5 12,0 - - 9 5 - - SSW 1015,5 26 0 0,0
21.08.2019 23:00:00 13,2 12,0 - - 4 2 - - SSE 1015,6 30 0 0,0
21.08.2019 22:00:00 13,1 10,7 - - 8 4 - - SSE 1015,7 35 0 0,0
21.08.2019 21:00:00 13,8 10,0 - - 11 6 - - WSW 1015,5 29 24 0,0
21.08.2019 20:00:00 15,0 10,6 - - 18 10 - - WSW 1014,9 30 60 0,0
21.08.2019 19:00:00 15,8 11,2 - - 21 11 - - WSW 1014,6 45 36 0,0
21.08.2019 18:00:00 15,8 13,2 - - 21 11 - - WSW 1014,5 45 30 0,0
21.08.2019 17:00:00 15,2 14,7 - - 24 13 - - SSW 1014,3 35 6 0,8
21.08.2019 16:00:00 14,4 13,7 - - 28 15 63 34 S 1014,2 9 0 0,4
21.08.2019 15:00:00 14,0 13,1 - - 29 16 55 30 S 1014,3 8 0 1,0
21.08.2019 14:00:00 14,3 12,8 - - 35 19 52 28 S 1014,9 17 0 0,8
21.08.2019 13:00:00 13,9 12,4 - - 31 17 48 26 S 1015,9 13 0 1,0
21.08.2019 12:00:00 13,7 12,3 - - 28 15 - - S 1016,7 10 0 0,6
21.08.2019 11:00:00 14,1 11,9 - - 18 10 - - S 1017,2 28 0 0,0
21.08.2019 10:00:00 13,4 11,8 - - 21 11 48 26 S 1017,5 35 0 0,0
21.08.2019 09:00:00 13,3 11,5 - - 31 17 50 27 SSW 1018,5 30 0 0,0
21.08.2019 08:00:00 12,3 11,6 - - 18 10 - - SE 1018,9 22 0 0,0
21.08.2019 07:00:00 12,6 11,7 - - 26 14 - - SSW 1018,9 25 0 0,0
21.08.2019 06:00:00 12,8 12,1 - - 18 10 - - S 1019,4 20 0 0,0
21.08.2019 05:00:00 12,8 12,3 - - 16 9 - - S 1020,0 21 0 0,0
21.08.2019 04:00:00 12,3 12,0 - - 13 7 - - S 1020,3 17 0 0,0
21.08.2019 03:00:00 12,1 11,9 - - 11 6 - - SSW 1020,6 16 0 0,0
21.08.2019 02:00:00 12,1 11,8 - - 5 3 - - SE 1020,9 16 0 0,0
21.08.2019 01:00:00 12,1 11,7 - - 5 3 - - S 1021,1 24 - 0,0
21.08.2019 00:00:00 12,5 11,9 - - 8 4 - - S 1021,0 26 0 0,0
20.08.2019 23:00:00 12,9 12,3 - - 5 3 - - S 1020,9 20 0 0,0
20.08.2019 22:00:00 13,7 13,1 - - 5 3 - - WSW 1020,7 11 0 2,6
20.08.2019 21:00:00 14,4 13,7 - - 8 4 - - SW 1020,4 7 0 0,2
20.08.2019 20:00:00 15,1 13,9 - - 5 3 - - W 1020,1 45 6 0,2
20.08.2019 19:00:00 15,3 13,8 - - 4 2 - - W 1019,8 40 0 0,0
20.08.2019 18:00:00 15,7 14,6 - - 5 3 - - WSW 1019,2 30 6 0,6
20.08.2019 17:00:00 14,6 13,6 - - 15 8 - - SSW 1018,9 10 0 3,4
20.08.2019 16:00:00 16,1 12,5 - - 15 8 - - S 1018,6 50 12 0,0
20.08.2019 15:00:00 16,9 13,2 - - 15 8 - - S 1018,6 45 30 0,0
20.08.2019 14:00:00 15,5 14,3 - - 11 6 - - S 1018,9 45 6 0,2
20.08.2019 13:00:00 13,2 12,2 - - 13 7 - - SSE 1019,0 22 0 0,0
20.08.2019 12:00:00 13,2 11,1 - - 15 8 - - S 1018,9 14 0 0,0
20.08.2019 11:00:00 13,8 10,7 - - 16 9 - - S 1018,8 17 6 0,0
20.08.2019 10:00:00 13,8 10,8 - - 11 6 - - S 1018,7 28 54 0,0
20.08.2019 09:00:00 11,6 9,5 - - 9 5 - - S 1018,7 22 60 0,0
20.08.2019 08:00:00 9,9 9,1 - - 5 3 - - SSE 1018,5 17 18 0,0
20.08.2019 07:00:00 9,4 8,3 - - 5 3 - - S 1018,1 19 0 0,0
20.08.2019 06:00:00 9,7 8,7 - - 8 4 - - S 1017,7 22 0 0,0
20.08.2019 05:00:00 9,9 8,8 - - 11 6 - - WSW 1017,4 21 0 0,0
20.08.2019 04:00:00 10,5 9,6 - - 11 6 - - WSW 1017,2 22 0 0,0
20.08.2019 03:00:00 10,3 9,2 - - 9 5 - - W 1016,9 20 0 0,0
20.08.2019 02:00:00 10,7 9,2 - - 11 6 - - WSW 1016,5 24 0 0,0
20.08.2019 01:00:00 10,9 9,1 - - 11 6 - - WSW 1016,2 21 - 0,0

tt = Température de l'air
td = dewpoint
tt -20cm = Température de l'air -20cm
tt -100cm = Température de l'air -100cm
ff = Vitesse du vent
fx = gusts
dd = Direction du vent
ppp = reduced air pressure
vv = visibility
sd = Ensoleillement
rr = Quantités de précipitations

stations d'obs. à proximité